Location: Lugano
(46.0000°N, 8.9670°E)
Time: 16:31:43
(UTC+02:00)

Envisat - Pass Details

Date: 21 March 2026
Orbit: 761 x 762 km, 98.4° (Epoch: 19 April)

Event Time Altitude Azimuth Distance (km) Brightness Sun altitude
Rises 01:36:25 0° 33° (NNE) 3,233 7.1 -41.7°
Reaches altitude 10° 01:40:07 10° 60° (ENE) 2,300 5.9 -41.4°
Enters shadow 01:40:18 10° 62° (ENE) 2,272 5.9 -41.4°
